COSMOS 2251 DEB, 34722

Orbit data source: Space-Track

COSMOS 2251 DEB, 34722 is space debris in LEO originally from a launch on Wed, 16 Jun 1993 UTC launched from the Plesetsk Missile And Space Complex (PKMTR). The debris from Iridium 33, an American commercial communications satellite, has been tracked extensively since its accidental collision with the defunct Russian satellite Cosmos 2251 in 2009. This event, occurring at high speed in low Earth orbit (LEO), generated thousands of pieces of space debris, significantly increasing the risk of further collisions. The Iridium 33 debris cloud has impacted space traffic management and orbital debris mitigation strategies, making it a subject of ongoing study in space situational awareness.

Loading next visibility...
Identifier
34722, 1993-036YQ
Orbit
LEO
Country
Flag of CISCIS
Related business
Manufacturer
Unknown
Mission
Spacecraft
Bus & Motor
Unknown
Mass
Unknown
Launch date (UTC)
1993-06-16 (33 years ago)
Launch vehicle
Unknown
Launch site
Plesetsk Missile And Space Complex (PKMTR)
Object type
Payload
Rocket body
Debris
Shape & HBR
Unknown shape, 0.1 m
Radar Cross Section
Medium (>0.1 m² and <1 m²)

Expand to show TLE details & history
Last TLE update: 23 hours ago

TLE from 23 hours ago
0 COSMOS 2251 DEB
1 34722U 93036YQ  26207.49542817  .00001444  00000-0  70111-3 0  9992
2 34722  73.8746 293.2794 0163347 175.8876 198.6684 14.12471938894325
Epoch: 2026-07-26T11:53Z
TLE epoch observation values (Epoch: 2026-07-26T11:53:24.993Z)
Latitude
13.37962°
Longitude
174.65549°
Altitude
964.837 km
Speed
7.313 km/s
True Right ascension
19h 48m 48s
True Declination
13° 18' 17"
Sunlit
Object was in full shadow at epoch
Visualization orbit readout
Latitude
Unknown
Longitude
Unknown
Altitude
Unknown
Speed
Unknown
Apparent Right ascension
Unknown
Apparent Declination
Unknown
Sunlit
N/A
Visualization observer readout
Local Sidereal Time
00:01:15
Azimuth
Unknown
Elevation
Unknown
Doppler factor
Unknown
Orbital elements
Apogee altitude
966.634 km
Perigee altitude
730.542 km
Semi-major axis
7,226.725 km
Eccentricity
0.01633
Inclination
73.8746°
RAAN
293.2794°
Arg. of periapsis
175.8876°
True anomaly
198.08064°
Mean anomaly
198.6684°
Eccentric anomaly
198.37339°
Mean motion
3.5329 °/min
Orbital period
101.9 mins
BSTAR
0.00070111
Loading maneuver chart data...
Computing Atmospheric mass density...

Documentation

Showing up to 5 results
|